Theta_e
323 324 325 326 327 324 335 335 342 345 345 345 345 344 352 354 352 349 346 343 341 342 342 342 342 341 344 346 350 350 350 349
327 325 325 326 324 329 330 341 347 347 347 348 344 352 353 354 353 352 350 349 348 348 350 351 346 342 341 347 350 350 351 351
323 326 326 329 330 323 327 332 342 350 348 344 344 348 353 354 351 349 348 347 346 346 348 351 352 348 350 351 353 353 354 353
322 322 328 331 331 326 329 333 339 339 343 345 342 349 351 353 350 347 346 345 344 343 344 347 348 351 353 353 353 353 351 353
324 331 331 334 331 327 325 331 342 340 341 347 343 349 349 349 348 345 344 341 338 336 336 341 345 342 341 341 342 339 336 335
326 334 331 336 335 329 327 331 333 337 341 351 345 348 348 347 344 340 337 335 333 330 330 333 339 338 336 335 333 331 330 331
329 333 333 334 334 332 332 329 336 335 347 347 347 345 347 345 340 335 333 331 330 329 329 330 332 335 333 332 331 331 330 331
331 329 333 336 333 333 332 334 337 342 340 340 344 342 344 343 338 334 333 332 329 327 326 329 331 332 332 329 330 330 331 330
331 325 325 329 334 335 337 346 342 344 340 341 343 345 343 338 336 334 332 330 327 327 327 326 327 329 330 331 331 331 332 332
327 327 329 326 334 334 336 333 340 345 340 340 339 336 335 334 333 331 328 326 325 325 327 329 330 330 329 329 330 331 331 331
328 326 325 333 331 335 341 337 331 333 332 332 329 328 327 326 325 325 326 325 327 329 329 329 328 329 328 327 327 328 329 330
324 328 338 333 332 329 332 344 330 329 330 330 329 333 328 327 326 326 327 328 327 328 328 328 328 328 329 329 329 329 330 329
328 328 330 327 329 329 339 340 329 329 329 327 328 328 326 327 326 325 326 328 328 328 327 327 328 327 326 327 327 328 328 328
327 334 332 329 330 332 327 324 328 327 326 327 326 326 324 324 325 325 325 326 326 326 326 327 326 325 326 326 327 327 327 326
325 327 324 324 326 324 324 326 324 325 325 326 324 324 325 325 324 324 324 324 325 325 325 325 325 323 324 325 326 326 324 324
328 328 326 324 323 323 325 325 324 324 323 324 325 325 323 321 321 322 323 324 324 325 325 324 322 322 323 324 324 322 320 321
328 328 328 328 326 324 324 323 323 324 325 325 323 323 322 321 321 322 323 323 323 323 323 322 320 320 319 319 318 318 319 320
329 325 326 326 326 324 325 325 325 324 323 322 322 322 321 321 322 322 322 322 321 321 320 319 319 318 317 316 317 318 318 319
326 323 326 326 324 323 324 324 323 322 322 322 322 323 322 321 322 321 320 319 318 319 320 317 316 316 316 317 317 318 318 319
Wind_Speed
5 5 6 4 3 5 8 3 3 4 5 7 5 5 9 8 6 6 3 2 5 5 8 11 15 15 16 20 25 23 23 24
3 4 4 3 7 4 3 4 1 4 5 5 5 6 9 7 5 5 6 6 4 5 5 5 10 15 12 19 23 22 21 24
5 2 5 2 2 6 6 4 5 2 6 8 3 8 11 5 5 4 7 6 5 6 12 14 10 4 3 7 11 15 17 18
9 5 6 2 6 6 5 5 1 3 6 5 4 7 9 7 5 4 5 6 6 6 12 19 22 20 14 9 8 5 9 7
9 5 3 5 3 5 6 4 6 6 6 4 5 6 6 10 6 4 5 6 5 6 9 13 15 17 17 15 15 14 15 15
7 7 4 4 4 5 4 4 6 6 4 5 10 8 6 7 6 5 5 6 4 4 5 6 8 10 10 10 9 9 10 10
3 3 1 3 3 8 6 3 5 5 13 15 16 12 11 10 7 6 5 6 4 3 3 3 4 5 4 3 3 5 9 9
2 5 4 1 3 3 4 3 5 1 6 4 11 7 8 11 8 6 6 5 5 4 2 1 2 2 4 8 9 9 8 8
2 3 3 2 3 5 1 2 4 5 4 8 12 11 11 8 6 6 5 4 3 4 1 2 1 3 6 9 10 12 13 14
2 5 1 5 1 2 6 2 4 2 4 6 9 6 8 6 6 6 5 4 4 1 2 5 10 10 11 11 12 12 13 14
3 3 3 4 5 5 5 3 3 6 11 14 14 12 8 4 4 5 5 5 4 5 7 9 12 13 15 18 18 18 18 18
4 5 8 7 5 4 4 4 5 9 11 13 4 4 3 3 5 6 9 7 7 6 6 9 12 14 16 18 19 21 21 24
2 4 5 4 3 3 5 6 7 7 4 4 5 3 6 5 5 7 7 7 7 8 10 11 12 14 16 17 19 20 22 24
4 2 7 4 4 7 4 5 11 5 4 9 9 7 7 6 5 7 6 7 9 11 14 15 17 18 19 19 21 21 23 28
6 5 3 4 3 1 5 15 6 8 6 11 9 6 6 4 4 4 5 9 10 12 15 16 19 20 21 22 22 23 24 23
2 4 4 4 3 5 4 8 8 11 10 7 9 6 5 4 3 4 7 8 9 13 16 19 23 22 19 21 20 21 23 22
1 4 2 3 2 6 8 11 11 7 7 9 10 6 4 3 1 3 6 8 10 11 13 17 21 18 19 18 19 22 22 22
6 8 4 5 5 7 12 10 11 13 6 5 7 7 5 3 3 5 7 9 11 12 13 14 16 17 17 17 20 22 21 21
4 9 5 7 7 4 8 10 7 10 11 9 8 10 6 3 3 4 5 7 10 11 11 13 15 17 19 21 23 23 23 24
Wind_Direction
214 181 141 188 138 150 105 6 58 306 291 290 238 205 72 47 80 89 121 215 246 232 244 252 253 222 214 253 253 252 256 253
322 88 28 174 148 88 25 127 209 301 282 238 253 132 74 61 52 82 91 80 69 51 37 345 277 274 249 235 247 256 263 258
23 54 189 128 81 52 111 110 153 163 260 230 196 117 112 105 98 110 106 96 73 61 74 67 52 13 301 252 254 260 263 269
245 265 214 281 145 138 123 227 144 153 271 280 146 91 119 130 147 135 126 116 103 87 85 79 76 73 76 70 73 38 21 335
335 350 20 95 112 102 105 98 190 142 257 339 98 120 132 146 173 171 140 112 102 89 77 82 89 88 84 79 74 66 54 44
183 209 151 153 150 140 104 131 174 214 240 238 194 175 159 152 169 170 154 136 107 74 65 87 92 90 87 82 70 50 32 26
218 259 254 129 161 163 187 182 165 222 185 206 195 181 172 166 167 158 175 150 146 170 191 138 119 129 116 95 30 5 1 8
77 32 1 68 328 218 205 151 283 76 248 272 153 117 144 168 162 165 181 159 153 152 86 347 282 305 326 345 352 347 329 323
209 54 19 44 226 279 337 74 147 202 249 142 144 155 159 144 151 168 158 148 115 62 68 280 27 15 5 358 348 337 327 322
144 48 300 251 104 148 126 51 324 92 104 134 124 94 107 135 157 148 129 91 78 127 142 54 40 20 2 356 351 340 332 325
127 164 280 286 232 188 184 298 320 128 116 119 123 92 45 46 91 108 104 119 110 62 44 20 359 346 336 330 330 327 327 322
139 196 200 234 184 131 119 294 130 139 133 136 143 115 178 107 98 97 93 75 50 23 359 348 342 333 326 324 325 323 326 322
158 223 287 227 193 144 124 235 144 145 135 117 101 165 154 128 80 76 67 42 26 1 342 333 336 333 324 321 317 324 321 318
111 127 263 150 99 178 192 64 138 126 115 101 117 113 110 104 81 50 27 4 350 341 338 340 343 340 329 322 330 326 327 327
179 215 277 286 283 329 166 136 144 123 127 128 117 107 108 100 60 27 7 353 353 347 338 339 343 345 330 326 329 330 326 321
68 330 334 355 69 89 104 110 112 123 128 121 119 122 121 116 60 27 7 352 340 335 331 331 341 340 337 333 331 324 316 314
20 305 332 336 103 119 99 107 107 94 120 130 123 124 122 121 56 355 347 351 348 339 332 336 341 338 334 335 330 322 311 307
212 193 162 192 175 135 130 130 130 121 105 99 120 134 129 115 28 8 357 351 349 347 338 335 335 331 330 326 326 317 307 304
221 174 193 159 147 143 132 137 134 131 134 134 129 125 121 112 60 23 9 357 352 342 337 338 337 333 334 332 332 321 311 306